Kodiak, AK

7:35 AM AKDT on September 19, 2017 (GMT -0800)
Kodiak

Weather History for PADQ - February, 2014

Change the Weather History Date:

Monday, February 17, 2014

  Actual Average Record
Temperature  
Mean Temperature 17 °F 31 °F  
Max Temperature 25 °F 36 °F 48 °F (1942)
Min Temperature 8 °F 26 °F 1 °F (1982)
Degree Days  
Heating Degree Days 48 34  
Month to date heating degree days 616 587  
Since 1 July heating degree days 4930 5501  
Cooling Degree Days 0 0  
Month to date cooling degree days 0 0  
Year to date cooling degree days 0 0  
Moisture  
Dew Point 3 °F    
Average Humidity 0    
Maximum Humidity 0    
Minimum Humidity 0    
Precipitation  
Precipitation 0.00 in 0.20 in 1.19 in (1927)
Month to date precipitation 1.35 3.88  
Year to date precipitation 15.65 12.17  
Snow  
Snow 0.00 in 0.50 in 17.00 in (1927)
Month to date snowfall 3.9 9.2  
Since 1 July snowfall 27.9 43.5  
Snow Depth 1.00 in    
Sea Level Pressure  
Sea Level Pressure 29.11 in    
Wind  
Wind Speed 8 mph (WNW)    
Max Wind Speed 15 mph    
Max Gust Speed 20 mph    
Visibility 10 miles    
Events      
T = Trace of Precipitation, MM = Missing Value Source: NWS Daily Summary

Daily Weather History Graph

Daily Weather History Graph

Search for Another Location

Airport or City:

Trip Planner

Search our weather history database for the weather conditions in past years. The results will help you decide how hot, cold, wet, or windy it might be!

Date:

Astronomy

Feb. 17, 2014 Rise Set
Actual Time 8:34 AM AKST 6:14 PM AKST
Civil Twilight 7:54 AM AKST 6:54 PM AKST
Nautical Twilight 7:08 AM AKST 7:40 PM AKST
Astronomical Twilight 6:23 AM AKST 8:25 PM AKST
Moon 10:07 PM AKST (2/17) 8:58 AM AKST (2/17)
Length of Visible Light 11h 00m
Length of Day
9h 39m
Waning Gibbous, 92% of the Moon is Illuminated
Feb 17
Waning Gibbous
Feb 22
Last Quarter
Feb 28
New
Mar 8
First Quarter
Mar 16
Full

Hourly Weather History & Observations

Time (AKST) Temp. Windchill Dew Point Humidity Pressure Visibility Wind Dir Wind Speed Gust Speed Precip Events Conditions
12:53 AM 16.0 °F 4.4 °F 5.0 °F 62% 29.06 in 10.0 mi NW 9.2 mph - N/A   Scattered Clouds
1:53 AM 16.0 °F 2.9 °F 5.0 °F 62% 29.06 in 10.0 mi NW 11.5 mph - N/A   Scattered Clouds
2:53 AM 16.0 °F 2.3 °F 6.1 °F 65% 29.06 in 10.0 mi NW 12.7 mph - N/A   Scattered Clouds
3:53 AM 16.0 °F 5.3 °F 6.1 °F 65% 29.06 in 10.0 mi WNW 8.1 mph - N/A   Scattered Clouds
4:53 AM 12.9 °F 5.2 °F 5.0 °F 71% 29.07 in 10.0 mi West 4.6 mph - N/A   Scattered Clouds
5:53 AM 12.9 °F 2.6 °F 5.0 °F 71% 29.07 in 10.0 mi West 6.9 mph - N/A   Scattered Clouds
6:53 AM 10.9 °F 0.2 °F 5.0 °F 77% 29.07 in 10.0 mi West 6.9 mph - N/A   Scattered Clouds
7:53 AM 10.0 °F 3.6 °F 3.9 °F 76% 29.07 in 10.0 mi WNW 3.5 mph - N/A   Partly Cloudy
8:53 AM 9.0 °F -2.2 °F 3.9 °F 80% 29.07 in 10.0 mi West 6.9 mph - N/A   Partly Cloudy
9:53 AM 12.0 °F 4.1 °F 5.0 °F 73% 29.08 in 10.0 mi West 4.6 mph - N/A   Partly Cloudy
10:53 AM 18.0 °F 12.7 °F 7.0 °F 62% 29.09 in 10.0 mi WSW 3.5 mph - N/A   Scattered Clouds
11:53 AM 21.9 °F 12.5 °F 6.1 °F 51% 29.09 in 10.0 mi NW 8.1 mph - N/A   Scattered Clouds
12:53 PM 23.0 °F 15.8 °F 5.0 °F 46% 29.10 in 10.0 mi NW 5.8 mph - 0.01 in   Scattered Clouds
1:53 PM 25.0 °F 20.7 °F 3.9 °F 41% 29.11 in 10.0 mi WNW 3.5 mph - 0.01 in   Scattered Clouds
2:53 PM 24.1 °F 16.0 °F 3.0 °F 40% 29.11 in 10.0 mi WNW 6.9 mph - N/A   Scattered Clouds
3:53 PM 25.0 °F 17.1 °F 1.0 °F 36% 29.12 in 10.0 mi WNW 6.9 mph - N/A   Scattered Clouds
4:53 PM 24.1 °F 16.0 °F -0.0 °F 35% 29.13 in 10.0 mi WNW 6.9 mph - N/A   Clear
5:53 PM 19.9 °F 10.1 °F -0.9 °F 40% 29.14 in 10.0 mi NW 8.1 mph - N/A   Scattered Clouds
6:53 PM 18.0 °F 6.1 °F -0.9 °F 44% 29.16 in 10.0 mi NW 10.4 mph - N/A   Scattered Clouds
7:53 PM 18.0 °F 4.8 °F -0.9 °F 44% 29.17 in 10.0 mi NW 12.7 mph - N/A   Scattered Clouds
8:53 PM 18.0 °F 4.8 °F -0.9 °F 44% 29.18 in 10.0 mi NW 12.7 mph - N/A   Scattered Clouds
9:53 PM 18.0 °F 5.4 °F -0.0 °F 45% 29.20 in 10.0 mi NW 11.5 mph - N/A   Partly Cloudy
10:53 PM 19.0 °F 8.2 °F 1.9 °F 47% 29.21 in 10.0 mi WNW 9.2 mph - N/A   Overcast
11:53 PM 21.0 °F 9.3 °F 5.0 °F 50% 29.22 in 10.0 mi WNW 11.5 mph - N/A   Overcast